[[{"header":{"parameterUnit":"m.s-1","parameterCategory":2,"la1":30.2991,"la2":30.254,"lo1":-89.0895,"lo2":-89.0444,"dy":0.0017,"dx":0.0017,"nx":28,"ny":28,"refTime":"2025-11-17T03:00:00:Z","depth":"0","parameterNumber":2,"parameterNumberName":"U-component_of_CURRENTS"},"data":[0,0,0,0,0,0,0,0,0,0,0,0,0,0,0,0,0,0,0,0,0,0,0,0,0,0,0,0,0,0,0,0,0,0,0,0,0,0,0,0,0,0,0,0,0,0,0,0,0,0,0,0,0,0,0,0,0,0,0.1196,0.1197,0,0.1175,0.1175,0.1174,0.1134,0.1134,0.1133,0.1133,0.111,0.111,0.111,0,0,0,0,0,0,0,0,0,0,0,0,0,0.1153,0.1154,0.1196,0.1197,0.1197,0.1175,0.1175,0.1174,0.1135,0.1134,0.1133,0.1133,0.111,0.111,0.111,0,0,0,0,0,0,0,0,0,0,0,0,0,0.1153,0.1155,0.1196,0.1177,0.1175,0.1175,0.1175,0.1174,0.1135,0.1134,0.1133,0.1133,0.1111,0.111,0.111,0.1123,0,0,0.1109,0.1109,0,0,0,0,0,0,0,0,0.1153,0.1154,0.1179,0.1178,0.1176,0.1159,0.1151,0.1158,0.1135,0.1147,0.1133,0.1132,0.1129,0.1127,0.1121,0.1122,0.1121,0.1109,0.1109,0.1109,0.1109,0,0,0,0,0,0,0,0.1153,0.1155,0.1185,0.118,0.1178,0.1152,0.1151,0.1152,0.114,0.1145,0.1143,0.1146,0.1128,0.1121,0.112,0.1121,0.1109,0.1109,0.1109,0.1109,0.1146,0.1147,0,0,0,0,0,0,0.1166,0.1156,0.1186,0.1184,0.1166,0.1154,0.1153,0.1163,0.114,0.1136,0.1147,0.1145,0.1122,0.112,0.1119,0.1178,0.1109,0.1109,0.1109,0.1145,0.1146,0.1147,0,0,0,0,0,0,0.1165,0.1169,0.1186,0.1171,0.1172,0.1156,0.1167,0.1163,0.1165,0.1141,0.1137,0.1154,0.1121,0.1119,0.1133,0.1175,0.1109,0.1109,0.1143,0.1145,0.1147,0.1266,0,0,0,0,0,0,0.1164,0.1169,0.1184,0.1173,0.1174,0.1203,0.1168,0.1163,0.1168,0.1165,0.1147,0.1143,0.112,0.1134,0.1133,0.1173,0.1108,0.1142,0.1144,0.1146,0.1261,0.1272,0.1281,0,0,0,0,0,0.1163,0.1192,0.1185,0.1188,0.1193,0.1205,0.1203,0.1186,0.117,0.1182,0.1167,0.1144,0.1146,0.1135,0.1133,0.1175,0.1141,0.1143,0.1146,0.1256,0.127,0.1281,0,0,0,0,0,0,0.1208,0.1191,0.1182,0.1212,0.1214,0.1199,0.1213,0.1198,0.1195,0.1193,0.1162,0.1159,0.1181,0.116,0.1148,0.1188,0.1138,0.1141,0.1223,0.1235,0.1245,0.1281,0.1108,0,0,0,0,0,0.122,0.1221,0.1215,0.1244,0.1247,0.1231,0.1234,0.1223,0.1218,0.1215,0.12,0.1188,0.1189,0.1198,0.1185,0.1219,0.1269,0.1241,0.1251,0.126,0.1286,0.1387,0.141,0.1155,0.1155,0.1155,0,0,0.1254,0.1239,0.1247,0.125,0.1249,0.1267,0.1231,0.1248,0.1264,0.1215,0.1236,0.1219,0.1201,0.123,0.124,0.1223,0.1367,0.1263,0.1271,0.1293,0.1392,0.1418,0.144,0.1157,0.1157,0.1157,0,0,0.1309,0.1305,0.1319,0.1316,0.1314,0.1306,0.1316,0.1307,0.1306,0.1321,0.1293,0.1314,0.1298,0.1314,0.1316,0.1378,0.1408,0.136,0.1459,0.1556,0.158,0.16,0.1746,0.1779,0.1378,0.1379,0.1379,0,0.1358,0.1365,0.1332,0.1343,0.1356,0.1329,0.1363,0.136,0.1357,0.1379,0.134,0.1367,0.1347,0.1418,0.1433,0.1408,0.148,0.1418,0.1576,0.1597,0.1616,0.176,0.1794,0.1385,0.1384,0.1383,0.1383,0,0.1412,0.1421,0.1437,0.1433,0.1442,0.1472,0.1462,0.1478,0.1468,0.147,0.1522,0.1504,0.1533,0.1524,0.1497,0.1621,0.1638,0.1572,0.1556,0.165,0.1794,0.1829,0.1393,0.1391,0.1389,0.1388,0,0,0.1556,0.1486,0.1504,0.1502,0.1493,0.1516,0.1548,0.1588,0.1634,0.1627,0.1705,0.1707,0.1708,0.1711,0.1694,0.1773,0.1975,0.1741,0.1743,0.1909,0.2251,0.2323,0.2367,0.1942,0.1947,0.1951,0.2317,0,0.163,0.1644,0.1597,0.1647,0.1664,0.164,0.1677,0.1703,0.1718,0.178,0.1795,0.1843,0.1777,0.1808,0.1882,0.1928,0.2062,0.1886,0.2114,0.2123,0.2194,0.2407,0.2438,0.277,0.235,0.2356,0.236,0,0.1726,0.1714,0.1747,0.1739,0.1753,0.1774,0.1845,0.187,0.1933,0.1948,0.2009,0.2009,0.2125,0.2039,0.2248,0.2141,0.2229,0.2272,0.2286,0.2335,0.2258,0.2596,0.2848,0.2732,0.2412,0.2408,0.2404,0,0.1841,0.1842,0.1862,0.1861,0.1843,0.1872,0.1888,0.1936,0.1978,0.2072,0.2128,0.2229,0.2301,0.2406,0.2482,0.2392,0.2724,0.2604,0.2781,0.2788,0.2852,0.2855,0.3037,0.2813,0.2812,0.2811,0.281,0,0.1936,0.1968,0.1913,0.1922,0.1985,0.1955,0.2039,0.2061,0.2126,0.2204,0.223,0.2325,0.2393,0.2552,0.2606,0.2838,0.2846,0.2884,0.291,0.2897,0.29,0.2823,0.2729,0.2825,0.2822,0.2819,0.2817,0,0.2041,0.2,0.2026,0.2014,0.2019,0.207,0.2099,0.2159,0.2213,0.2323,0.2363,0.2467,0.2674,0.2785,0.2988,0.303,0.3181,0.3285,0.3294,0.3314,0.3325,0.3237,0.3381,0.3358,0.357,0.3574,0.3578,0,0.2073,0.209,0.2093,0.2108,0.2094,0.2147,0.2177,0.2206,0.2261,0.2402,0.2469,0.2688,0.2824,0.3186,0.3343,0.3581,0.3396,0.373,0.3547,0.3422,0.3343,0.313,0.3081,0.3709,0.3714,0.3717,0.372,0,0.2131,0.2136,0.2141,0.2168,0.2193,0.2234,0.2275,0.2321,0.2374,0.2472,0.2602,0.2722,0.3092,0.3319,0.3646,0.3785,0.3609,0.3812,0.3682,0.3511,0.3297,0.3253,0.3381,0.3753,0.3749,0.3747,0.3745,0.3744,0.2161,0.2186,0.2174,0.2208,0.2242,0.2272,0.2285,0.2346,0.2419,0.2514,0.2659,0.2821,0.3196,0.3648,0.3786,0.4022,0.3866,0.396,0.3892,0.3707,0.3596,0.3829,0.4192,0.4192,0.4191,0.4191,0.419,0,0.2143,0.216,0.2202,0.2205,0.2226,0.225,0.2301,0.2299,0.2352,0.2524,0.2637,0.2981,0.3333,0.364,0.4032,0.4042,0.3927,0.3998,0.3682,0.3652,0.3907,0.3816,0.4113,0.4113,0.4113,0.4113,0.4113,0.4113,0.2116,0.2122,0.2141,0.2145,0.2163,0.2147,0.2155,0.2192,0.2289,0.2445,0.2604,0.2772,0.3164,0.3669,0.3899,0.3934,0.3691,0.367,0.3564,0.3685,0.3671,0.3658,0.3549,0.3785,0.3785,0.3248,0.3244,0.3241]},{"header":{"parameterUnit":"m.s-1","parameterCategory":2,"la1":30.2991,"la2":30.254,"lo1":-89.0895,"lo2":-89.0444,"dy":0.0017,"dx":0.0017,"nx":28,"ny":28,"refTime":"2025-11-17T03:00:00:Z","depth":"0","parameterNumber":3,"parameterNumberName":"V-component_of_CURRENTS"},"data":[0,0,0,0,0,0,0,0,0,0,0,0,0,0,0,0,0,0,0,0,0,0,0,0,0,0,0,0,0,0,0,0,0,0,0,0,0,0,0,0,0,0,0,0,0,0,0,0,0,0,0,0,0,0,0,0,0,0,-0.0448,-0.0449,0,-0.0584,-0.0586,-0.0587,-0.0674,-0.0675,-0.0675,-0.0675,-0.0752,-0.0754,-0.0756,0,0,0,0,0,0,0,0,0,0,0,0,0,-0.0299,-0.0301,-0.0448,-0.0449,-0.0451,-0.0584,-0.0586,-0.0588,-0.0674,-0.0675,-0.0675,-0.0675,-0.0752,-0.0754,-0.0756,0,0,0,0,0,0,0,0,0,0,0,0,0,-0.0394,-0.0302,-0.0447,-0.0508,-0.0515,-0.0583,-0.0586,-0.0588,-0.0674,-0.0675,-0.0675,-0.0676,-0.0751,-0.0754,-0.0756,-0.0762,0,0,-0.0764,-0.0765,0,0,0,0,0,0,0,0,-0.0388,-0.0399,-0.0498,-0.0504,-0.0512,-0.0611,-0.0562,-0.0643,-0.0674,-0.0616,-0.0675,-0.0676,-0.0698,-0.0705,-0.0733,-0.0766,-0.0769,-0.0764,-0.0766,-0.0767,-0.0768,0,0,0,0,0,0,0,-0.0381,-0.0394,-0.0504,-0.0499,-0.0508,-0.0542,-0.0556,-0.0578,-0.0653,-0.0621,-0.0627,-0.0639,-0.0702,-0.073,-0.0735,-0.077,-0.0764,-0.0767,-0.0768,-0.0769,-0.0821,-0.0821,0,0,0,0,0,0,-0.0359,-0.0388,-0.0499,-0.0507,-0.0448,-0.0544,-0.0559,-0.058,-0.0654,-0.0666,-0.0639,-0.0643,-0.0726,-0.0732,-0.0738,-0.0714,-0.0767,-0.0769,-0.0771,-0.0822,-0.0821,-0.0821,0,0,0,0,0,0,-0.0355,-0.0368,-0.0494,-0.0449,-0.0467,-0.0545,-0.0568,-0.0583,-0.061,-0.0668,-0.0679,-0.065,-0.0726,-0.0734,-0.0758,-0.0718,-0.0771,-0.0773,-0.0822,-0.0822,-0.0821,-0.0687,0,0,0,0,0,0,-0.0351,-0.0366,-0.0372,-0.0447,-0.0468,-0.0512,-0.0568,-0.0585,-0.0616,-0.0623,-0.0681,-0.069,-0.0727,-0.0754,-0.0761,-0.0723,-0.0775,-0.0822,-0.0822,-0.0821,-0.0691,-0.0682,-0.0674,0,0,0,0,0,-0.0345,-0.0341,-0.0371,-0.0385,-0.0475,-0.0511,-0.0524,-0.0583,-0.0615,-0.0613,-0.0666,-0.0688,-0.0757,-0.0756,-0.0764,-0.0726,-0.0822,-0.0822,-0.0821,-0.0695,-0.0684,-0.0674,0,0,0,0,0,0,-0.0274,-0.0352,-0.0386,-0.0406,-0.0446,-0.0524,-0.0529,-0.0574,-0.0618,-0.0623,-0.0686,-0.0697,-0.0706,-0.0742,-0.074,-0.0746,-0.0793,-0.0794,-0.0694,-0.0684,-0.0675,-0.0621,-0.0777,0,0,0,0,0,-0.0262,-0.0283,-0.0354,-0.0365,-0.0383,-0.0457,-0.048,-0.0518,-0.0568,-0.0589,-0.0632,-0.0679,-0.0712,-0.0718,-0.0757,-0.0751,-0.076,-0.0736,-0.0727,-0.0719,-0.0684,-0.0687,-0.0674,-0.082,-0.082,-0.082,0,0,-0.0233,-0.0281,-0.029,-0.0351,-0.0391,-0.0392,-0.0472,-0.0493,-0.0486,-0.0586,-0.0588,-0.065,-0.0709,-0.0711,-0.0716,-0.0731,-0.0682,-0.0719,-0.0711,-0.068,-0.0685,-0.067,-0.0657,-0.082,-0.082,-0.082,0,0,-0.0176,-0.023,-0.0225,-0.0251,-0.0302,-0.0341,-0.034,-0.0408,-0.043,-0.0448,-0.052,-0.0553,-0.0605,-0.0631,-0.0654,-0.0618,-0.0644,-0.0641,-0.0534,-0.0538,-0.0524,-0.0513,-0.0489,-0.0476,-0.0625,-0.0624,-0.0624,0,-0.0136,-0.015,-0.0222,-0.0218,-0.0224,-0.0306,-0.0283,-0.0312,-0.0375,-0.0377,-0.0425,-0.0501,-0.0557,-0.0547,-0.0545,-0.0589,-0.0594,-0.0563,-0.0521,-0.051,-0.05,-0.0479,-0.0466,-0.0618,-0.0619,-0.0619,-0.062,0,-0.0081,-0.0083,-0.0075,-0.0098,-0.0109,-0.0102,-0.0147,-0.0155,-0.0198,-0.0232,-0.0246,-0.0332,-0.0374,-0.0401,-0.0462,-0.0424,-0.0449,-0.0514,-0.0533,-0.0476,-0.0459,-0.0448,-0.0608,-0.0611,-0.0613,-0.0614,0,0,-0.002,-0.0032,-0.0031,-0.0015,-0.0046,-0.0048,-0.002,-0.0023,-0.0002,-0.0058,-0.0029,-0.0104,-0.0165,-0.0196,-0.0277,-0.0277,-0.0226,-0.0355,-0.0359,-0.0303,-0.0207,-0.02,-0.0188,-0.0286,-0.0284,-0.0283,-0.0214,0,0.0045,0.0089,0.0063,0.0123,0.0145,0.0103,0.0136,0.0126,0.0099,0.0108,0.0042,0.002,-0.0082,-0.0113,-0.0122,-0.0215,-0.0195,-0.0236,-0.0294,-0.0294,-0.0273,-0.0175,-0.0135,-0.0069,-0.0204,-0.0202,-0.0201,0,0.0097,0.012,0.0187,0.0229,0.0235,0.0261,0.0292,0.031,0.0308,0.0287,0.0268,0.0195,0.0182,0.0072,0.0021,-0.0004,-0.0079,-0.014,-0.0141,-0.0166,-0.0267,-0.0156,-0.0045,-0.0184,-0.0185,-0.0187,-0.0188,0,0.0154,0.0206,0.0264,0.0275,0.0309,0.0338,0.0354,0.0362,0.0387,0.0393,0.0408,0.037,0.0339,0.0263,0.0126,0.0072,0.0081,-0.0021,-0.0064,-0.0064,-0.0054,-0.0057,-0.0057,-0.0026,-0.0026,-0.0026,-0.0026,0,0.0218,0.0263,0.0294,0.0323,0.04,0.0399,0.0469,0.0478,0.0506,0.0553,0.0494,0.052,0.038,0.0346,0.0219,0.0139,0.0154,0.0004,-0.0032,-0.0008,-0.0007,-0.0151,-0.0285,-0.0023,-0.0024,-0.0024,-0.0025,0,0.0258,0.028,0.0351,0.0405,0.0423,0.0472,0.0529,0.0576,0.0597,0.0661,0.0667,0.0646,0.061,0.0498,0.0381,0.0261,0.0099,0.0135,0.0193,0.0162,-0.0026,-0.0156,-0.0186,-0.0269,0.0116,0.0116,0.0117,0,0.0275,0.0315,0.0398,0.0439,0.0462,0.0526,0.057,0.0608,0.0654,0.0733,0.077,0.0773,0.078,0.0664,0.0481,0.0344,0.0153,0.0256,0.0152,0.0024,-0.0149,-0.0229,-0.0305,0.0222,0.0224,0.0225,0.0226,0,0.0311,0.034,0.0398,0.0478,0.0535,0.0609,0.067,0.0723,0.0777,0.0844,0.0918,0.0945,0.0869,0.0781,0.061,0.0464,0.015,0.0274,0.0124,-0.0052,-0.0121,-0.0239,0.0122,0.0237,0.0236,0.0235,0.0234,0.0234,0.0324,0.0372,0.0438,0.0514,0.0589,0.0667,0.0726,0.0798,0.0889,0.1006,0.1032,0.1139,0.1046,0.0831,0.0606,0.0277,0.0198,0.0149,0.0012,-0.0047,-0.0151,0.0256,0.0323,0.0322,0.0322,0.0321,0.0321,0,0.0328,0.0382,0.0461,0.0555,0.0633,0.0668,0.0775,0.0841,0.0945,0.1111,0.1199,0.1326,0.1113,0.0864,0.0466,0.0121,-0.0056,-0.0092,-0.0207,-0.0271,0.0102,0.0081,0.0119,0.0119,0.0119,0.012,0.012,0.012,0.0332,0.0395,0.044,0.0556,0.0627,0.0728,0.0789,0.0905,0.1044,0.1286,0.1468,0.1612,0.1578,0.0731,0.0124,-0.011,-0.0444,-0.05,-0.0673,-0.0441,-0.0429,-0.0418,-0.0464,-0.0541,-0.0542,-0.0961,-0.0965,-0.0969]}],[{"header":{"parameterUnit":"m.s-1","parameterCategory":2,"la1":30.2991,"la2":30.254,"lo1":-89.0895,"lo2":-89.0444,"dy":0.0017,"dx":0.0017,"nx":28,"ny":28,"refTime":"2025-11-17T03:00:00:Z","depth":"2","parameterNumber":2,"parameterNumberName":"U-component_of_CURRENTS"},"data":[0,0,0,0,0,0,0,0,0,0,0,0,0,0,0,0,0,0,0,0,0,0,0,0,0,0,0,0,0,0,0,0,0,0,0,0,0,0,0,0,0,0,0,0,0,0,0,0,0,0,0,0,0,0,0,0,0,0,-0.0297,-0.0296,0,-0.0222,-0.0221,-0.022,-0.0222,-0.0223,-0.0224,-0.0225,-0.0141,-0.0138,-0.0135,0,0,0,0,0,0,0,0,0,0,0,0,0,-0.0411,-0.0409,-0.0297,-0.0296,-0.0295,-0.0222,-0.0221,-0.022,-0.0222,-0.0223,-0.0224,-0.0226,-0.0142,-0.0139,-0.0135,0,0,0,0,0,0,0,0,0,0,0,0,0,-0.0351,-0.0409,-0.0297,-0.0288,-0.0286,-0.0222,-0.0221,-0.022,-0.0221,-0.0223,-0.0225,-0.0226,-0.0144,-0.0139,-0.0134,-0.0072,0,0,-0.0119,-0.0117,0,0,0,0,0,0,0,0,-0.0354,-0.0347,-0.029,-0.0288,-0.0286,-0.0234,-0.0231,-0.017,-0.0221,-0.0245,-0.0225,-0.0227,-0.0171,-0.0164,-0.0145,-0.0068,-0.0064,-0.0119,-0.0116,-0.0114,-0.0113,0,0,0,0,0,0,0,-0.0359,-0.035,-0.0267,-0.0289,-0.0287,-0.0277,-0.027,-0.0219,-0.0199,-0.0243,-0.0243,-0.0236,-0.017,-0.015,-0.0143,-0.0063,-0.0119,-0.0115,-0.0112,-0.011,0.0129,0.0133,0,0,0,0,0,0,-0.0368,-0.0353,-0.0269,-0.0264,-0.0326,-0.0274,-0.0266,-0.0248,-0.02,-0.0194,-0.0234,-0.0236,-0.0157,-0.0149,-0.014,-0.0017,-0.0114,-0.0109,-0.0107,0.0126,0.013,0.0134,0,0,0,0,0,0,-0.0371,-0.0361,-0.0272,-0.0309,-0.0297,-0.0271,-0.025,-0.0246,-0.0223,-0.0193,-0.0188,-0.0216,-0.0158,-0.0147,-0.0074,-0.0016,-0.0107,-0.0103,0.0122,0.0127,0.0132,0.0201,0,0,0,0,0,0,-0.0374,-0.0362,-0.0351,-0.0309,-0.0295,-0.0229,-0.0248,-0.0243,-0.0217,-0.0218,-0.0175,-0.017,-0.0159,-0.0081,-0.0069,-0.0011,-0.0099,0.0117,0.0124,0.013,0.0194,0.0207,0.0219,0,0,0,0,0,-0.0378,-0.0359,-0.0351,-0.0341,-0.0281,-0.0227,-0.0219,-0.0206,-0.0214,-0.0193,-0.0156,-0.0171,-0.0031,-0.0074,-0.0061,0.0,0.0114,0.0122,0.013,0.0188,0.0205,0.0219,0,0,0,0,0,0,-0.041,-0.0356,-0.0347,-0.0314,-0.0271,-0.0228,-0.0206,-0.0196,-0.0149,-0.0145,-0.0128,-0.0118,-0.0029,-0.0017,-0.0065,0.0092,0.0041,0.0052,0.0081,0.0097,0.0109,0.0096,-0.0095,0,0,0,0,0,-0.0409,-0.0373,-0.0326,-0.0296,-0.0274,-0.0236,-0.0213,-0.0196,-0.0152,-0.0135,-0.0095,-0.0045,0.0017,0.005,0.0103,0.0188,0.0191,0.0239,0.0251,0.0262,0.0264,0.032,0.0337,0.0159,0.0159,0.0159,0,0,-0.0412,-0.0377,-0.0358,-0.0299,-0.0264,-0.0204,-0.0226,-0.0177,-0.0121,-0.0128,-0.0034,0.0001,0.005,0.0145,0.0187,0.016,0.032,0.0271,0.0279,0.0276,0.033,0.0347,0.0362,0.0165,0.0164,0.0163,0,0,-0.0386,-0.0366,-0.0319,-0.0275,-0.0214,-0.0182,-0.0166,-0.0102,-0.0071,0.0021,0.0036,0.0102,0.0199,0.0246,0.028,0.0397,0.0383,0.0423,0.0477,0.0533,0.0547,0.0559,0.0596,0.0611,0.0429,0.0429,0.0429,0,-0.0394,-0.0324,-0.0299,-0.0235,-0.0193,-0.0167,-0.0101,-0.0053,0.003,0.0071,0.0061,0.0217,0.0249,0.0363,0.0404,0.0424,0.0444,0.0409,0.0546,0.0558,0.0569,0.0603,0.0619,0.0434,0.0433,0.0433,0.0432,0,-0.032,-0.0263,-0.023,-0.0136,-0.0089,-0.0029,0.0037,0.0095,0.0133,0.0182,0.0296,0.0347,0.0431,0.0465,0.047,0.0584,0.0569,0.055,0.0495,0.059,0.0622,0.0637,0.044,0.0438,0.0437,0.0436,0,0,-0.033,-0.0204,-0.0188,-0.0133,-0.0031,0.0014,0.0114,0.0209,0.0271,0.0353,0.044,0.0548,0.0559,0.0598,0.062,0.0668,0.0767,0.0647,0.0648,0.0662,0.0885,0.082,0.0829,0.077,0.0773,0.0775,0.0876,0,-0.0275,-0.0154,-0.0097,0.0022,0.0087,0.0145,0.0232,0.0317,0.0385,0.0477,0.0536,0.0632,0.0617,0.0661,0.0711,0.0754,0.0809,0.0741,0.0809,0.0811,0.0724,0.0845,0.0783,0.0863,0.089,0.0893,0.0895,0,-0.0209,-0.0138,-0.0021,0.0098,0.0132,0.0206,0.0327,0.0413,0.0534,0.0586,0.0677,0.0718,0.0822,0.0782,0.09,0.0857,0.0883,0.0902,0.0906,0.0827,0.0773,0.0774,0.0888,0.0919,0.0917,0.0915,0.0913,0,-0.0226,-0.0082,0.0005,0.0051,0.0188,0.0249,0.0326,0.0447,0.0521,0.0661,0.072,0.0831,0.0897,0.0951,0.0986,0.096,0.1088,0.1055,0.1024,0.1018,0.0968,0.0953,0.1144,0.1144,0.1143,0.1143,0.1143,0,-0.0188,-0.0115,0.0004,0.0053,0.0152,0.0252,0.0365,0.0452,0.0581,0.0672,0.0772,0.084,0.0944,0.1016,0.1032,0.1074,0.1132,0.1058,0.1054,0.0992,0.0978,0.1018,0.1002,0.1147,0.1146,0.1145,0.1145,0,-0.0211,-0.0128,-0.0032,0.0103,0.0149,0.0219,0.0373,0.0449,0.0578,0.0698,0.0747,0.0883,0.0977,0.1053,0.1149,0.1135,0.1176,0.1172,0.1081,0.1063,0.1058,0.1046,0.1168,0.1167,0.1166,0.1165,0.1164,0,-0.021,-0.0163,-0.0028,0.0026,0.0093,0.0208,0.0284,0.0429,0.0506,0.0699,0.0741,0.0887,0.0947,0.1065,0.1102,0.1154,0.1168,0.1112,0.1047,0.1085,0.1068,0.1057,0.1045,0.1021,0.1019,0.1018,0.1017,0,-0.0222,-0.018,-0.0108,-0.0002,0.0084,0.0177,0.0296,0.0346,0.0515,0.0605,0.0721,0.079,0.0925,0.0971,0.105,0.1043,0.1097,0.1079,0.1191,0.1001,0.0948,0.093,0.0925,0.1004,0.1005,0.1006,0.1007,0.1007,-0.0244,-0.0209,-0.0116,-0.0016,0.0069,0.0148,0.0211,0.0308,0.0403,0.0561,0.0631,0.075,0.0833,0.0918,0.0927,0.0965,0.1003,0.0985,0.099,0.0997,0.0938,0.0884,0.0917,0.0917,0.0918,0.0919,0.0919,0,-0.0258,-0.0199,-0.0123,-0.0011,0.0055,0.0129,0.0224,0.0269,0.0341,0.0492,0.0592,0.0644,0.07,0.0807,0.0856,0.0858,0.084,0.0828,0.0829,0.0842,0.0853,0.0787,0.0727,0.0726,0.0726,0.0725,0,0,-0.0255,-0.0194,-0.0149,-0.004,0.0044,0.013,0.0179,0.0223,0.0315,0.0427,0.0546,0.0647,0.0756,0.0731,0.0737,0.0762,0.0779,0.0719,0.0871,0.0883,0.0893,0.0942,0.0854,0,0,0,0,0]},{"header":{"parameterUnit":"m.s-1","parameterCategory":2,"la1":30.2991,"la2":30.254,"lo1":-89.0895,"lo2":-89.0444,"dy":0.0017,"dx":0.0017,"nx":28,"ny":28,"refTime":"2025-11-17T03:00:00:Z","depth":"2","parameterNumber":3,"parameterNumberName":"V-component_of_CURRENTS"},"data":[0,0,0,0,0,0,0,0,0,0,0,0,0,0,0,0,0,0,0,0,0,0,0,0,0,0,0,0,0,0,0,0,0,0,0,0,0,0,0,0,0,0,0,0,0,0,0,0,0,0,0,0,0,0,0,0,0,0,-0.0025,-0.0025,0,0.0021,0.0021,0.0022,0.0083,0.0084,0.0085,0.0085,0.0163,0.0165,0.0166,0,0,0,0,0,0,0,0,0,0,0,0,0,-0.0066,-0.0065,-0.0025,-0.0025,-0.0024,0.0021,0.0021,0.0022,0.0083,0.0084,0.0085,0.0086,0.0163,0.0165,0.0166,0,0,0,0,0,0,0,0,0,0,0,0,0,-0.0035,-0.0065,-0.0025,0.001,0.0013,0.002,0.0021,0.0022,0.0083,0.0084,0.0085,0.0086,0.0163,0.0164,0.0166,0.0154,0,0,0.0172,0.0173,0,0,0,0,0,0,0,0,-0.0037,-0.0033,0.0004,0.0008,0.0011,0.0046,0.0036,0.0067,0.0082,0.0059,0.0085,0.0087,0.0125,0.013,0.0138,0.0158,0.0161,0.0173,0.0174,0.0175,0.0175,0,0,0,0,0,0,0,-0.0039,-0.0035,-0.0005,0.0005,0.0009,0.0021,0.0027,0.0042,0.0086,0.0061,0.0065,0.0066,0.0127,0.0136,0.0141,0.0162,0.0173,0.0174,0.0176,0.0176,0.0241,0.0241,0,0,0,0,0,0,-0.005,-0.0037,-0.0006,-0.0004,-0.0012,0.0021,0.0027,0.0035,0.0086,0.0094,0.0065,0.0069,0.0132,0.0138,0.0144,0.0178,0.0175,0.0176,0.0178,0.024,0.0241,0.0242,0,0,0,0,0,0,-0.0051,-0.0047,-0.0008,-0.0021,-0.0016,0.002,0.0028,0.0035,0.0066,0.0088,0.0098,0.009,0.0133,0.0141,0.0176,0.018,0.0177,0.0179,0.024,0.024,0.0241,0.0217,0,0,0,0,0,0,-0.0052,-0.0048,-0.0034,-0.0022,-0.0015,0.0019,0.0027,0.0035,0.0062,0.0068,0.0112,0.0119,0.0135,0.0173,0.0178,0.0182,0.0181,0.0239,0.024,0.0241,0.0217,0.0217,0.0216,0,0,0,0,0,-0.0053,-0.0033,-0.0033,-0.0029,-0.0001,0.0019,0.0025,0.0054,0.0062,0.0085,0.0108,0.0119,0.0183,0.0175,0.0181,0.0186,0.0239,0.024,0.0241,0.0217,0.0217,0.0216,0,0,0,0,0,0,-0.0024,-0.0026,-0.0025,-0.0,0.0014,0.0029,0.0052,0.0061,0.0095,0.0106,0.0125,0.0134,0.0164,0.0181,0.0171,0.0209,0.0213,0.0215,0.0193,0.0193,0.0193,0.0182,0.0182,0,0,0,0,0,-0.0021,-0.0015,-0.0008,0.0013,0.002,0.0034,0.0049,0.0065,0.0087,0.0105,0.0127,0.0152,0.0168,0.0187,0.0207,0.0228,0.0216,0.0236,0.0236,0.0236,0.0232,0.0212,0.0208,0.0245,0.0245,0.0245,0,0,-0.0006,-0.0005,0.0,0.0017,0.003,0.0047,0.0049,0.0076,0.0091,0.0106,0.0143,0.0153,0.0174,0.0196,0.0212,0.0215,0.0218,0.0237,0.0236,0.0233,0.0213,0.0209,0.0205,0.0246,0.0246,0.0246,0,0,0.002,0.0029,0.0039,0.0051,0.0067,0.0072,0.0081,0.01,0.0116,0.0138,0.0149,0.0159,0.0197,0.0202,0.021,0.0221,0.0215,0.0236,0.0228,0.0208,0.0204,0.0201,0.0171,0.0165,0.0239,0.0238,0.0238,0,0.0041,0.0053,0.005,0.0066,0.0079,0.0083,0.0104,0.0115,0.0143,0.0149,0.0156,0.0179,0.0194,0.0203,0.0205,0.0218,0.0205,0.0224,0.0205,0.0201,0.0198,0.0168,0.0162,0.0237,0.0238,0.0238,0.0238,0,0.0065,0.0085,0.0097,0.0108,0.0123,0.0145,0.0149,0.0165,0.0171,0.0173,0.0185,0.0189,0.0202,0.0204,0.0206,0.0195,0.0191,0.0201,0.0199,0.0192,0.0162,0.0156,0.0236,0.0236,0.0237,0.0237,0,0,0.0083,0.0108,0.0112,0.0129,0.0147,0.0164,0.0179,0.0191,0.0204,0.0205,0.0212,0.021,0.0199,0.0206,0.0204,0.0183,0.0138,0.0181,0.0181,0.0139,0.0084,0.0017,0.0004,0.0143,0.0142,0.0141,0.0067,0,0.0105,0.0141,0.0144,0.0184,0.0205,0.0209,0.0224,0.0233,0.0236,0.0245,0.022,0.0232,0.0205,0.021,0.0177,0.0155,0.0122,0.0156,0.0108,0.0106,0.0037,-0.0005,-0.0,-0.0071,0.0061,0.006,0.0059,0,0.012,0.0144,0.0185,0.0221,0.0231,0.0253,0.0275,0.0292,0.029,0.0291,0.0273,0.0259,0.0221,0.0207,0.0128,0.0152,0.0111,0.0085,0.0082,0.0023,0.0027,-0.0039,-0.0088,0.0049,0.0049,0.005,0.0051,0,0.0125,0.0171,0.0206,0.0219,0.0258,0.0276,0.0297,0.0307,0.0333,0.0322,0.0337,0.0277,0.0269,0.0194,0.0116,0.0126,0.003,0.0041,-0.0062,-0.0066,-0.0071,-0.0076,-0.0019,-0.0019,-0.0018,-0.0018,-0.0018,0,0.014,0.017,0.0216,0.0236,0.0287,0.03,0.0348,0.0358,0.038,0.0417,0.0365,0.0367,0.0267,0.0201,0.0118,-0.0009,0.0024,-0.0084,-0.0097,-0.008,-0.0084,0.0023,0.0028,-0.0021,-0.002,-0.002,-0.0019,0,0.0144,0.017,0.0219,0.027,0.0294,0.0332,0.0402,0.0434,0.0447,0.0493,0.0493,0.0435,0.0329,0.0215,0.0096,0.0002,-0.011,-0.0154,-0.014,-0.0153,-0.0193,-0.0187,-0.029,-0.0293,-0.0295,-0.0298,-0.03,0,0.0153,0.0176,0.025,0.0294,0.0325,0.0387,0.0433,0.0467,0.0508,0.0533,0.0555,0.0469,0.0379,0.0149,-0.0016,-0.0202,-0.0171,-0.0304,-0.0298,-0.0222,-0.0224,-0.0214,-0.0205,-0.0309,-0.0311,-0.0312,-0.0313,0,0.0175,0.02,0.0245,0.0336,0.0398,0.0463,0.0531,0.0566,0.0608,0.062,0.0609,0.0531,0.0319,0.0088,-0.0163,-0.0266,-0.0286,-0.0343,-0.0262,-0.0249,-0.0249,-0.0248,-0.0237,-0.0326,-0.0325,-0.0324,-0.0323,-0.0323,0.0201,0.0237,0.0304,0.0393,0.0465,0.0531,0.0583,0.0626,0.0661,0.0636,0.0589,0.046,0.0241,-0.0138,-0.029,-0.0403,-0.0403,-0.0451,-0.0443,-0.0433,-0.0431,-0.0436,-0.0548,-0.0548,-0.0548,-0.0548,-0.0548,0,0.0241,0.0291,0.0365,0.0464,0.0541,0.0589,0.0654,0.0655,0.0678,0.059,0.0513,0.0266,0.0006,-0.016,-0.0358,-0.0521,-0.0477,-0.0541,-0.0452,-0.0441,-0.0431,-0.0423,-0.0541,-0.0541,-0.0541,-0.0541,0,0,0.0267,0.0336,0.0371,0.0512,0.0602,0.0708,0.0748,0.0695,0.0634,0.0473,0.038,0.0163,-0.0008,-0.017,-0.0361,-0.0433,-0.0392,-0.0441,-0.0442,-0.0308,-0.0295,-0.0387,-0.0366,0,0,0,0,0]}],[{"header":{"parameterUnit":"m.s-1","parameterCategory":2,"la1":30.2991,"la2":30.254,"lo1":-89.0895,"lo2":-89.0444,"dy":0.0017,"dx":0.0017,"nx":28,"ny":28,"refTime":"2025-11-17T03:00:00:Z","depth":"4","parameterNumber":2,"parameterNumberName":"U-component_of_CURRENTS"},"data":[0,0,0,0,0,0,0,0,0,0,0,0,0,0,0,0,0,0,0,0,0,0,0,0,0,0,0,0,0,0,0,0,0,0,0,0,0,0,0,0,0,0,0,0,0,0,0,0,0,0,0,0,0,0,0,0,0,0,0.0121,0.0122,0,0.0139,0.014,0.014,0.0149,0.015,0.015,0.015,0.0166,0.0166,0.0167,0,0,0,0,0,0,0,0,0,0,0,0,0,0.0124,0.0123,0.0121,0.0122,0.0122,0.0139,0.014,0.014,0.0149,0.015,0.015,0.015,0.0166,0.0166,0.0167,0,0,0,0,0,0,0,0,0,0,0,0,0,0.0129,0.0123,0.0121,0.013,0.0131,0.0139,0.014,0.014,0.0149,0.015,0.015,0.015,0.0166,0.0166,0.0167,0.0166,0,0,0.0168,0.0168,0,0,0,0,0,0,0,0,0.0129,0.0129,0.0128,0.0129,0.013,0.0143,0.0147,0.0149,0.0149,0.0141,0.015,0.015,0.0159,0.016,0.0161,0.0166,0.0167,0.0168,0.0168,0.0169,0.0169,0,0,0,0,0,0,0,0.0128,0.0128,0.0127,0.0129,0.013,0.0143,0.0143,0.0147,0.0148,0.0142,0.0143,0.0147,0.0159,0.0161,0.0162,0.0167,0.0168,0.0169,0.0169,0.0169,0.0171,0.0171,0,0,0,0,0,0,0.0127,0.0128,0.0127,0.0128,0.0131,0.0142,0.0143,0.0138,0.0148,0.015,0.0147,0.0147,0.016,0.0161,0.0162,0.0164,0.0169,0.0169,0.0169,0.0172,0.0171,0.0171,0,0,0,0,0,0,0.0127,0.0126,0.0126,0.013,0.0131,0.0142,0.0137,0.0138,0.0142,0.0152,0.0153,0.0149,0.016,0.0162,0.0169,0.0164,0.0169,0.017,0.0172,0.0172,0.0171,0.0165,0,0,0,0,0,0,0.0126,0.0126,0.0122,0.0129,0.0131,0.0133,0.0137,0.0139,0.0145,0.0145,0.0154,0.0156,0.016,0.0168,0.0169,0.0165,0.017,0.0172,0.0172,0.0171,0.0165,0.0164,0.0164,0,0,0,0,0,0.0126,0.012,0.0121,0.0121,0.0124,0.0133,0.0135,0.0143,0.0144,0.0147,0.0153,0.0155,0.0166,0.0168,0.017,0.0166,0.0172,0.0172,0.0171,0.0166,0.0165,0.0164,0,0,0,0,0,0,0.0117,0.0121,0.0122,0.0117,0.0126,0.0135,0.0138,0.0143,0.0149,0.015,0.0156,0.0158,0.0161,0.0164,0.0167,0.0164,0.0168,0.0168,0.0163,0.0162,0.0161,0.0168,0.017,0,0,0,0,0,0.0114,0.0113,0.0119,0.0116,0.0119,0.0128,0.0132,0.0139,0.0146,0.0149,0.0156,0.016,0.016,0.0162,0.0166,0.0167,0.0176,0.0163,0.0162,0.0162,0.0168,0.0175,0.0176,0.017,0.017,0.017,0,0,0.011,0.0113,0.0112,0.0115,0.0121,0.0126,0.013,0.0138,0.0144,0.0149,0.0159,0.0159,0.0159,0.0161,0.0162,0.0163,0.0169,0.0161,0.016,0.0167,0.0175,0.0176,0.0176,0.0169,0.0169,0.0169,0,0,0.011,0.0104,0.0106,0.0111,0.0122,0.0127,0.0129,0.014,0.0145,0.0153,0.0155,0.0155,0.016,0.0159,0.0158,0.0154,0.0164,0.0151,0.0152,0.0159,0.016,0.0161,0.0176,0.0178,0.015,0.015,0.015,0,0.0102,0.0107,0.0109,0.0114,0.012,0.0126,0.0132,0.0137,0.0151,0.0156,0.0156,0.0161,0.0159,0.0158,0.0154,0.0152,0.0162,0.0156,0.0159,0.016,0.0161,0.0176,0.0179,0.0149,0.0149,0.015,0.015,0,0.0107,0.011,0.0112,0.0119,0.0125,0.0131,0.0138,0.0145,0.0151,0.0157,0.0162,0.0161,0.0166,0.0157,0.0153,0.0155,0.0162,0.0157,0.0163,0.0161,0.0177,0.018,0.0149,0.0149,0.0149,0.0149,0,0,0.0085,0.0109,0.0109,0.012,0.0128,0.0135,0.0142,0.0152,0.0161,0.0166,0.0178,0.0166,0.0169,0.0168,0.0162,0.0162,0.0171,0.0162,0.0162,0.018,0.0195,0.0241,0.0248,0.0168,0.0168,0.0169,0.0205,0,0.0087,0.0103,0.0112,0.0127,0.0137,0.0144,0.0152,0.0162,0.017,0.0184,0.0179,0.0187,0.0172,0.0175,0.0172,0.0174,0.0178,0.0162,0.0193,0.0194,0.0236,0.0253,0.017,0.0207,0.0207,0.0208,0.0208,0,0.0085,0.01,0.0117,0.0142,0.0145,0.0154,0.017,0.0179,0.0193,0.02,0.0205,0.0209,0.0211,0.0198,0.0205,0.0197,0.0197,0.0196,0.0198,0.0246,0.0244,0.0208,0.0213,0.0213,0.0213,0.0212,0.0212,0,0.0079,0.0101,0.0118,0.0125,0.0151,0.016,0.017,0.0184,0.0197,0.0215,0.0229,0.0232,0.0244,0.0239,0.0243,0.0224,0.026,0.0233,0.0275,0.0278,0.0228,0.0227,0.0241,0.0241,0.0241,0.0241,0.0241,0,0.0077,0.0091,0.0119,0.013,0.0151,0.0164,0.0183,0.0195,0.0215,0.0234,0.024,0.0259,0.0255,0.0275,0.0263,0.0294,0.0279,0.0288,0.0294,0.0224,0.0222,0.023,0.0228,0.0242,0.0242,0.0242,0.0242,0,0.0072,0.0089,0.0113,0.0142,0.0153,0.0166,0.0193,0.0207,0.0226,0.0254,0.0264,0.029,0.0324,0.0331,0.034,0.0335,0.0347,0.0359,0.0305,0.0306,0.0351,0.0348,0.0402,0.0404,0.0406,0.0407,0.0409,0,0.0075,0.0088,0.0122,0.0137,0.0152,0.0174,0.0191,0.0211,0.0228,0.0272,0.0288,0.0337,0.0354,0.0406,0.0408,0.0424,0.0414,0.042,0.0363,0.0369,0.0369,0.0364,0.0359,0.0411,0.0412,0.0412,0.0413,0,0.008,0.0091,0.011,0.0143,0.0163,0.0187,0.0212,0.0226,0.0255,0.0271,0.0318,0.0352,0.0405,0.0426,0.0461,0.0457,0.0414,0.0437,0.0432,0.0378,0.038,0.0378,0.0371,0.0418,0.0418,0.0417,0.0417,0,0.0081,0.0093,0.0118,0.0147,0.0174,0.0202,0.0212,0.0243,0.0264,0.0308,0.0324,0.0374,0.0401,0.0446,0.0467,0.0491,0.0471,0.0443,0.0437,0.0431,0.0427,0.0433,0.0505,0,0,0,0,0,0.0081,0.0097,0.0124,0.0159,0.0187,0.0205,0.0231,0.024,0.0265,0.0298,0.0312,0.036,0.0418,0.0442,0.0473,0.0487,0.0473,0.0522,0.0437,0.0451,0.0444,0.0439,0,0,0,0,0,0,0.0079,0.0102,0.0122,0.0166,0.0194,0.0226,0.0242,0.0258,0.0277,0.0302,0.0332,0.0356,0.0411,0.0401,0.047,0.048,0.0427,0.0552,0.0552,0.0455,0.0448,0.0443,0.0436,0,0,0,0,0]},{"header":{"parameterUnit":"m.s-1","parameterCategory":2,"la1":30.2991,"la2":30.254,"lo1":-89.0895,"lo2":-89.0444,"dy":0.0017,"dx":0.0017,"nx":28,"ny":28,"refTime":"2025-11-17T03:00:00:Z","depth":"4","parameterNumber":3,"parameterNumberName":"V-component_of_CURRENTS"},"data":[0,0,0,0,0,0,0,0,0,0,0,0,0,0,0,0,0,0,0,0,0,0,0,0,0,0,0,0,0,0,0,0,0,0,0,0,0,0,0,0,0,0,0,0,0,0,0,0,0,0,0,0,0,0,0,0,0,0,-0.0233,-0.0233,0,-0.0248,-0.0248,-0.0248,-0.0272,-0.0273,-0.0273,-0.0274,-0.0319,-0.032,-0.0321,0,0,0,0,0,0,0,0,0,0,0,0,0,-0.0226,-0.0226,-0.0233,-0.0233,-0.0233,-0.0248,-0.0248,-0.0248,-0.0272,-0.0273,-0.0273,-0.0274,-0.0319,-0.032,-0.0321,0,0,0,0,0,0,0,0,0,0,0,0,0,-0.0234,-0.0226,-0.0233,-0.0247,-0.0249,-0.0248,-0.0248,-0.0248,-0.0272,-0.0273,-0.0273,-0.0274,-0.0319,-0.032,-0.0321,-0.0314,0,0,-0.0325,-0.0325,0,0,0,0,0,0,0,0,-0.0233,-0.0234,-0.0245,-0.0246,-0.0248,-0.0259,-0.0262,-0.0272,-0.0272,-0.0263,-0.0274,-0.0274,-0.0302,-0.0304,-0.0305,-0.0317,-0.0319,-0.0325,-0.0325,-0.0326,-0.0326,0,0,0,0,0,0,0,-0.0233,-0.0233,-0.0239,-0.0245,-0.0247,-0.0253,-0.0255,-0.0264,-0.0279,-0.0264,-0.0266,-0.0267,-0.0303,-0.0303,-0.0306,-0.0319,-0.0325,-0.0326,-0.0326,-0.0327,-0.0387,-0.0388,0,0,0,0,0,0,-0.023,-0.0233,-0.0238,-0.0239,-0.0242,-0.0253,-0.0255,-0.0255,-0.0278,-0.0282,-0.0267,-0.0268,-0.0301,-0.0305,-0.0308,-0.0362,-0.0326,-0.0327,-0.0328,-0.0386,-0.0387,-0.0388,0,0,0,0,0,0,-0.023,-0.0231,-0.0238,-0.0237,-0.0238,-0.0252,-0.0252,-0.0255,-0.0268,-0.028,-0.0285,-0.0279,-0.0302,-0.0306,-0.0332,-0.0362,-0.0328,-0.0329,-0.0385,-0.0386,-0.0388,-0.0431,0,0,0,0,0,0,-0.023,-0.023,-0.0232,-0.0236,-0.0238,-0.0245,-0.0251,-0.0254,-0.0268,-0.027,-0.0292,-0.0296,-0.0303,-0.033,-0.0333,-0.0363,-0.033,-0.0384,-0.0386,-0.0387,-0.0429,-0.0434,-0.0439,0,0,0,0,0,-0.0229,-0.0232,-0.0232,-0.0233,-0.0239,-0.0245,-0.0247,-0.0259,-0.0268,-0.0274,-0.0294,-0.0296,-0.0343,-0.0331,-0.0335,-0.0366,-0.0383,-0.0385,-0.0387,-0.0427,-0.0433,-0.0439,0,0,0,0,0,0,-0.0235,-0.0234,-0.0235,-0.0238,-0.0244,-0.025,-0.0259,-0.0264,-0.0283,-0.0292,-0.0303,-0.0309,-0.0345,-0.0344,-0.0331,-0.0387,-0.0365,-0.0368,-0.0394,-0.04,-0.0405,-0.0404,-0.0331,0,0,0,0,0,-0.0234,-0.0234,-0.0236,-0.024,-0.0245,-0.0252,-0.0258,-0.0266,-0.028,-0.0289,-0.0308,-0.0329,-0.0352,-0.0367,-0.0383,-0.0408,-0.04,-0.0431,-0.0436,-0.044,-0.0442,-0.0452,-0.0458,-0.0395,-0.0395,-0.0395,0,0,-0.0239,-0.0237,-0.0239,-0.0241,-0.0249,-0.026,-0.0258,-0.0271,-0.0289,-0.0291,-0.0329,-0.0346,-0.0362,-0.0398,-0.0414,-0.0403,-0.0453,-0.0443,-0.0446,-0.0446,-0.0455,-0.0461,-0.0466,-0.0396,-0.0396,-0.0396,0,0,-0.0246,-0.0247,-0.0249,-0.0256,-0.0264,-0.0271,-0.0277,-0.0292,-0.0308,-0.0338,-0.0351,-0.0382,-0.0415,-0.0435,-0.0448,-0.0486,-0.0478,-0.0497,-0.0524,-0.0535,-0.054,-0.0544,-0.0538,-0.0542,-0.0501,-0.0501,-0.0501,0,-0.0251,-0.0254,-0.0253,-0.026,-0.0271,-0.0279,-0.0293,-0.0309,-0.0333,-0.035,-0.0359,-0.0417,-0.0434,-0.0475,-0.0498,-0.0498,-0.0496,-0.0502,-0.0541,-0.0545,-0.0549,-0.0542,-0.0545,-0.0503,-0.0503,-0.0502,-0.0502,0,-0.0259,-0.0268,-0.0274,-0.0285,-0.0296,-0.0311,-0.033,-0.035,-0.0375,-0.0392,-0.044,-0.0464,-0.0497,-0.0515,-0.0524,-0.0566,-0.0552,-0.0545,-0.0526,-0.0558,-0.0548,-0.0551,-0.0506,-0.0506,-0.0505,-0.0504,0,0,-0.0259,-0.0274,-0.028,-0.0288,-0.0312,-0.0321,-0.0357,-0.0385,-0.0407,-0.0446,-0.0478,-0.0535,-0.0547,-0.0562,-0.0576,-0.0595,-0.0626,-0.059,-0.059,-0.0582,-0.0642,-0.0597,-0.0595,-0.063,-0.0631,-0.0632,-0.0622,0,-0.0269,-0.0283,-0.0293,-0.0321,-0.0332,-0.0354,-0.0383,-0.0411,-0.0441,-0.0473,-0.0509,-0.0544,-0.0564,-0.0583,-0.061,-0.0619,-0.0637,-0.0629,-0.0612,-0.0611,-0.0567,-0.0598,-0.0634,-0.0624,-0.0625,-0.0625,-0.0625,0,-0.0275,-0.0282,-0.0305,-0.0332,-0.0341,-0.0363,-0.0404,-0.0429,-0.0473,-0.0496,-0.0538,-0.0559,-0.0603,-0.0608,-0.0647,-0.0643,-0.0652,-0.0656,-0.0656,-0.06,-0.0572,-0.0586,-0.063,-0.063,-0.0629,-0.0629,-0.0629,0,-0.0267,-0.0294,-0.0312,-0.0323,-0.0354,-0.0375,-0.0399,-0.0439,-0.0457,-0.0506,-0.0518,-0.0573,-0.0589,-0.0622,-0.0643,-0.065,-0.0668,-0.067,-0.0634,-0.063,-0.0653,-0.0648,-0.0695,-0.0695,-0.0695,-0.0695,-0.0695,0,-0.0267,-0.0283,-0.031,-0.0319,-0.0343,-0.0371,-0.0401,-0.0429,-0.0463,-0.0475,-0.0526,-0.0536,-0.0596,-0.0613,-0.064,-0.064,-0.0664,-0.0643,-0.063,-0.067,-0.0668,-0.0654,-0.0649,-0.0695,-0.0695,-0.0695,-0.0695,0,-0.0253,-0.0272,-0.0289,-0.0324,-0.0336,-0.0354,-0.039,-0.0407,-0.044,-0.0455,-0.0467,-0.0509,-0.0529,-0.057,-0.0605,-0.0617,-0.063,-0.0622,-0.0651,-0.0639,-0.0586,-0.0584,-0.0587,-0.0586,-0.0584,-0.0583,-0.0582,0,-0.0245,-0.0252,-0.0285,-0.0295,-0.0312,-0.034,-0.0356,-0.0394,-0.0403,-0.0428,-0.0427,-0.0452,-0.0478,-0.0484,-0.054,-0.0575,-0.058,-0.0586,-0.0609,-0.0591,-0.0578,-0.0578,-0.0578,-0.058,-0.058,-0.058,-0.0579,0,-0.0229,-0.0244,-0.0256,-0.0273,-0.0292,-0.031,-0.0333,-0.0331,-0.0363,-0.0386,-0.0374,-0.0394,-0.0406,-0.0447,-0.0471,-0.0502,-0.0587,-0.0573,-0.0576,-0.0598,-0.0582,-0.0571,-0.0572,-0.0575,-0.0575,-0.0576,-0.0576,0,-0.022,-0.0222,-0.0239,-0.0253,-0.027,-0.0279,-0.0294,-0.0298,-0.0307,-0.0327,-0.0317,-0.0347,-0.0376,-0.0407,-0.0432,-0.0456,-0.0468,-0.0481,-0.0489,-0.0495,-0.0476,-0.0444,-0.0386,0,0,0,0,0,-0.0212,-0.0213,-0.022,-0.0235,-0.0248,-0.026,-0.0278,-0.0291,-0.0307,-0.0282,-0.0298,-0.0305,-0.0336,-0.0361,-0.0373,-0.0424,-0.0487,-0.044,-0.0508,-0.055,-0.0555,-0.0546,0,0,0,0,0,0,-0.0208,-0.0213,-0.0213,-0.0216,-0.0221,-0.0236,-0.0246,-0.0259,-0.0246,-0.026,-0.0272,-0.0294,-0.0328,-0.0317,-0.0365,-0.0377,-0.0419,-0.0465,-0.0465,-0.0547,-0.0551,-0.0556,-0.0549,0,0,0,0,0]}]]